[[{"header":{"parameterUnit":"m.s-1","parameterCategory":1,"la1":30.2991,"la2":30.254,"lo1":-89.0895,"lo2":-89.0444,"dy":0.0017,"dx":0.0017,"nx":28,"ny":28,"refTime":"2024-08-22T21:00:00:Z","depth":0,"parameterNumber":2,"parameterNumberName":"U-component_of_WINDS"},"data":[0,0,0,0,0,0,0,0,0,0,0,0,0,0,0,0,0,0,0,0,0,0,0,0,0,0,0,0,0,0,0,0,0,0,0,0,0,0,0,0,0,0,0,0,0,0,0,0,0,0,0,0,0,0,0,0,0,0,-3.8975,-3.8975,0,-3.8952,-3.8951,-3.8951,-3.8764,-3.8759,-3.8755,-3.875,-3.8731,-3.8735,-3.8738,0,0,0,0,0,0,0,0,0,0,0,0,0,-3.8862,-3.8865,-3.8975,-3.8975,-3.8975,-3.8952,-3.8951,-3.8951,-3.8765,-3.8759,-3.8754,-3.8748,-3.873,-3.8734,-3.8739,0,0,0,0,0,0,0,0,0,0,0,0,0,-3.8882,-3.8866,-3.8975,-3.8879,-3.887,-3.8952,-3.8951,-3.8951,-3.8766,-3.8759,-3.8752,-3.8746,-3.8728,-3.8734,-3.8739,-3.8913,0,0,-3.8757,-3.8759,0,0,0,0,0,0,0,0,-3.8882,-3.8887,-3.8893,-3.8886,-3.8876,-3.8853,-3.8904,-3.8938,-3.8768,-3.8806,-3.875,-3.8742,-3.8778,-3.8779,-3.879,-3.8912,-3.8911,-3.8757,-3.8761,-3.8763,-3.8765,0,0,0,0,0,0,0,-3.888,-3.8887,-3.8966,-3.8894,-3.8883,-3.8838,-3.8833,-3.891,-3.8831,-3.8802,-3.8788,-3.8788,-3.8772,-3.8785,-3.8788,-3.8911,-3.8757,-3.8762,-3.8766,-3.8768,-3.9175,-3.9182,0,0,0,0,0,0,-3.8892,-3.8887,-3.8967,-3.8965,-3.8861,-3.8846,-3.884,-3.8868,-3.883,-3.8817,-3.8794,-3.8779,-3.8778,-3.8782,-3.8787,-3.8987,-3.8763,-3.8768,-3.8772,-3.9167,-3.9176,-3.9184,0,0,0,0,0,0,-3.889,-3.8901,-3.8968,-3.8922,-3.8927,-3.8855,-3.8887,-3.8871,-3.8884,-3.8823,-3.8809,-3.8822,-3.8773,-3.8779,-3.8883,-3.8984,-3.8771,-3.8776,-3.9159,-3.917,-3.918,-3.9391,0,0,0,0,0,0,-3.8888,-3.8901,-3.8966,-3.8925,-3.893,-3.9064,-3.8894,-3.8876,-3.8894,-3.8874,-3.8846,-3.8834,-3.8768,-3.8875,-3.8888,-3.8988,-3.878,-3.9149,-3.9164,-3.9177,-3.9375,-3.9408,-3.9436,0,0,0,0,0,-3.8884,-3.9027,-3.897,-3.8981,-3.901,-3.907,-3.9073,-3.8993,-3.8903,-3.8967,-3.8928,-3.8835,-3.8971,-3.8887,-3.8901,-3.9004,-3.9142,-3.916,-3.9176,-3.9361,-3.9401,-3.9435,0,0,0,0,0,0,-3.9084,-3.902,-3.8956,-3.909,-3.9087,-3.9038,-3.9117,-3.9038,-3.9062,-3.9043,-3.8944,-3.8939,-3.9058,-3.9041,-3.8949,-3.9169,-3.904,-3.9061,-3.9177,-3.9215,-3.9245,-3.9247,-3.8785,0,0,0,0,0,-3.9143,-3.9196,-3.9138,-3.9262,-3.9263,-3.9191,-3.9215,-3.9153,-3.9146,-3.9144,-3.9112,-3.9111,-3.9152,-3.9182,-3.9218,-3.9371,-3.9362,-3.9448,-3.9479,-3.9505,-3.9523,-3.9603,-3.9641,-3.9239,-3.9239,-3.9238,0,0,-3.9266,-3.9238,-3.9278,-3.9301,-3.9291,-3.9349,-3.9191,-3.926,-3.9302,-3.9155,-3.9251,-3.9228,-3.9219,-3.9349,-3.9404,-3.9338,-3.9632,-3.9526,-3.9547,-3.9551,-3.9624,-3.9662,-3.9696,-3.925,-3.9248,-3.9246,0,0,-3.9521,-3.9505,-3.9606,-3.9599,-3.9585,-3.9536,-3.9561,-3.9524,-3.9503,-3.9597,-3.9488,-3.9537,-3.9612,-3.961,-3.9619,-3.9872,-3.9788,-3.9887,-4.0048,-4.0127,-4.0159,-4.0186,-4.0277,-4.0311,-3.9906,-3.9906,-3.9907,0,-3.9677,-3.9759,-3.9668,-3.9743,-3.9757,-3.9624,-3.9726,-3.9724,-3.9724,-3.9737,-3.9663,-3.9752,-3.9737,-3.9864,-3.9926,-3.9938,-3.9963,-3.989,-4.0161,-4.0188,-4.0213,-4.0298,-4.0332,-3.9918,-3.9917,-3.9916,-3.9915,0,-3.9951,-4.001,-4.0093,-4.0094,-4.0117,-4.0206,-4.0129,-4.0163,-4.01,-4.0059,-4.0157,-4.0134,-4.0162,-4.0188,-4.0127,-4.0307,-4.0266,-4.0179,-4.0047,-4.0265,-4.0343,-4.0375,-3.9936,-3.9931,-3.9928,-3.9925,0,0,-4.0331,-4.028,-4.0312,-4.0311,-4.0286,-4.033,-4.0413,-4.0439,-4.047,-4.0475,-4.0542,-4.0608,-4.0526,-4.0536,-4.0474,-4.0543,-4.0746,-4.0446,-4.0444,-4.0503,-4.0943,-4.1009,-4.1049,-4.0689,-4.0695,-4.07,-4.0943,0,-4.0576,-4.0713,-4.0633,-4.0782,-4.0836,-4.071,-4.0782,-4.0776,-4.074,-4.0781,-4.0741,-4.079,-4.0678,-4.0683,-4.0746,-4.0708,-4.0833,-4.0689,-4.0752,-4.0755,-4.0758,-4.1089,-4.116,-4.1391,-4.0974,-4.0979,-4.0982,0,-4.088,-4.0895,-4.105,-4.1013,-4.1033,-4.1099,-4.1116,-4.1156,-4.1146,-4.1115,-4.1127,-4.1048,-4.1127,-4.0997,-4.1106,-4.101,-4.1031,-4.1017,-4.1023,-4.1027,-4.0883,-4.1102,-4.1463,-4.1498,-4.103,-4.1026,-4.1023,0,-4.1142,-4.1202,-4.1301,-4.1304,-4.1264,-4.1314,-4.13,-4.1283,-4.1303,-4.1319,-4.1331,-4.1357,-4.1372,-4.1394,-4.1324,-4.1235,-4.1443,-4.1306,-4.142,-4.1422,-4.147,-4.1468,-4.184,-4.1484,-4.1483,-4.1482,-4.1482,0,-4.1424,-4.1523,-4.1418,-4.148,-4.1587,-4.1495,-4.1605,-4.1578,-4.1564,-4.1618,-4.1512,-4.1566,-4.147,-4.1515,-4.1461,-4.156,-4.1567,-4.1545,-4.153,-4.1555,-4.1558,-4.1568,-4.155,-4.1491,-4.1489,-4.1488,-4.1486,0,-4.1735,-4.1669,-4.1769,-4.1723,-4.1713,-4.1795,-4.1756,-4.1812,-4.1768,-4.1839,-4.185,-4.1783,-4.183,-4.1762,-4.1803,-4.1766,-4.1902,-4.1862,-4.1905,-4.1894,-4.2012,-4.2002,-4.2403,-4.2451,-4.2065,-4.2068,-4.2072,0,-4.1919,-4.1992,-4.1954,-4.1982,-4.1974,-4.2021,-4.204,-4.1953,-4.1979,-4.1973,-4.2029,-4.2067,-4.2092,-4.2174,-4.213,-4.216,-4.212,-4.2259,-4.2124,-4.2147,-4.2123,-4.2119,-4.2126,-4.2287,-4.2292,-4.2295,-4.2298,0,-4.2254,-4.2217,-4.2248,-4.227,-4.2296,-4.2308,-4.2313,-4.2343,-4.2251,-4.2285,-4.2331,-4.2351,-4.2391,-4.2431,-4.2449,-4.2436,-4.2354,-4.2341,-4.2369,-4.2395,-4.2417,-4.2407,-4.1981,-4.2332,-4.2329,-4.2326,-4.2325,-4.2323,-4.2506,-4.2565,-4.2547,-4.2586,-4.258,-4.2587,-4.2637,-4.2599,-4.2635,-4.266,-4.2607,-4.2666,-4.2654,-4.2671,-4.2667,-4.2713,-4.2652,-4.2693,-4.2703,-4.2715,-4.2733,-4.241,-4.2716,-4.2715,-4.2714,-4.2713,-4.2712,0,-4.2835,-4.2817,-4.2853,-4.2863,-4.2894,-4.2811,-4.2812,-4.2844,-4.2897,-4.2892,-4.2919,-4.2972,-4.3009,-4.2968,-4.2998,-4.3043,-4.3005,-4.3054,-4.3049,-4.3048,-4.2785,-4.2758,-4.3083,-4.3083,-4.3083,-4.3083,-4.3083,-4.3083,-4.301,-4.3105,-4.3066,-4.3158,-4.3138,-4.3194,-4.3202,-4.3208,-4.3204,-4.3267,-4.3297,-4.3269,-4.325,-4.3277,-4.3308,-4.3295,-4.3311,-4.3373,-4.3347,-4.3103,-4.3066,-4.3032,-4.3006,-4.3378,-4.3378,-4.3606,-4.3608,-4.3609]},{"header":{"parameterUnit":"m.s-1","parameterCategory":1,"la1":30.2991,"la2":30.254,"lo1":-89.0895,"lo2":-89.0444,"dy":0.0017,"dx":0.0017,"nx":28,"ny":28,"refTime":"2024-08-22T21:00:00:Z","depth":0,"parameterNumber":3,"parameterNumberName":"V-component_of_WINDS"},"data":[0,0,0,0,0,0,0,0,0,0,0,0,0,0,0,0,0,0,0,0,0,0,0,0,0,0,0,0,0,0,0,0,0,0,0,0,0,0,0,0,0,0,0,0,0,0,0,0,0,0,0,0,0,0,0,0,0,0,-1.9506,-1.9506,0,-1.9555,-1.9555,-1.9556,-1.9596,-1.9597,-1.9597,-1.9598,-1.9643,-1.9644,-1.9645,0,0,0,0,0,0,0,0,0,0,0,0,0,-1.9441,-1.9442,-1.9506,-1.9506,-1.9507,-1.9555,-1.9555,-1.9556,-1.9596,-1.9597,-1.9597,-1.9598,-1.9643,-1.9644,-1.9645,0,0,0,0,0,0,0,0,0,0,0,0,0,-1.9477,-1.9442,-1.9505,-1.9533,-1.9536,-1.9555,-1.9555,-1.9556,-1.9596,-1.9597,-1.9597,-1.9598,-1.9643,-1.9644,-1.9645,-1.9639,0,0,-1.9649,-1.9649,0,0,0,0,0,0,0,0,-1.9475,-1.948,-1.9528,-1.9531,-1.9534,-1.957,-1.9549,-1.9584,-1.9596,-1.9573,-1.9598,-1.9598,-1.9618,-1.9621,-1.9629,-1.9641,-1.9643,-1.9649,-1.965,-1.965,-1.965,0,0,0,0,0,0,0,-1.9473,-1.9478,-1.9525,-1.9529,-1.9533,-1.9541,-1.9547,-1.9556,-1.9591,-1.9575,-1.9578,-1.9584,-1.962,-1.9628,-1.963,-1.9644,-1.9649,-1.965,-1.9651,-1.9651,-1.9652,-1.9652,0,0,0,0,0,0,-1.9467,-1.9475,-1.9523,-1.9526,-1.9506,-1.9541,-1.9548,-1.9558,-1.9591,-1.9597,-1.9583,-1.9585,-1.9625,-1.9629,-1.9632,-1.9626,-1.965,-1.9651,-1.9652,-1.9653,-1.9652,-1.9651,0,0,0,0,0,0,-1.9465,-1.9471,-1.9521,-1.9502,-1.9509,-1.9542,-1.9553,-1.9559,-1.9567,-1.9597,-1.9603,-1.9585,-1.9626,-1.963,-1.9637,-1.9628,-1.9652,-1.9653,-1.9654,-1.9653,-1.9652,-1.9615,0,0,0,0,0,0,-1.9463,-1.947,-1.9469,-1.9502,-1.951,-1.9527,-1.9552,-1.9559,-1.9569,-1.9573,-1.9601,-1.9606,-1.9627,-1.9635,-1.9638,-1.963,-1.9654,-1.9655,-1.9653,-1.9652,-1.9617,-1.9613,-1.9609,0,0,0,0,0,-1.9461,-1.9456,-1.9469,-1.9475,-1.951,-1.9527,-1.9531,-1.9557,-1.9568,-1.9567,-1.9586,-1.9605,-1.9629,-1.9635,-1.9639,-1.9632,-1.9655,-1.9654,-1.9652,-1.9619,-1.9614,-1.9609,0,0,0,0,0,0,-1.9421,-1.9461,-1.9476,-1.9482,-1.9501,-1.9533,-1.9533,-1.9551,-1.9565,-1.9568,-1.9597,-1.9603,-1.9606,-1.962,-1.9626,-1.9627,-1.9645,-1.9644,-1.9618,-1.9613,-1.9609,-1.9605,-1.9655,0,0,0,0,0,-1.9413,-1.9425,-1.9459,-1.9461,-1.947,-1.9499,-1.9507,-1.9526,-1.9545,-1.9553,-1.9573,-1.959,-1.9602,-1.9608,-1.9621,-1.962,-1.9625,-1.9616,-1.9612,-1.9609,-1.9607,-1.9606,-1.9602,-1.9646,-1.9646,-1.9646,0,0,-1.9396,-1.942,-1.9425,-1.9453,-1.947,-1.9479,-1.9506,-1.9515,-1.9521,-1.9554,-1.9562,-1.9577,-1.9598,-1.96,-1.9602,-1.9612,-1.9596,-1.9607,-1.9604,-1.9604,-1.9604,-1.96,-1.9596,-1.9645,-1.9645,-1.9646,0,0,-1.9371,-1.9391,-1.9394,-1.941,-1.9436,-1.9455,-1.9456,-1.9486,-1.9498,-1.9506,-1.953,-1.9538,-1.9557,-1.9571,-1.958,-1.9559,-1.9575,-1.9562,-1.954,-1.9539,-1.9535,-1.9532,-1.9522,-1.9519,-1.956,-1.956,-1.956,0,-1.9347,-1.9364,-1.9393,-1.9401,-1.9411,-1.9443,-1.9445,-1.9459,-1.9486,-1.9491,-1.9502,-1.9527,-1.9543,-1.9548,-1.9543,-1.955,-1.955,-1.9558,-1.9534,-1.9531,-1.9528,-1.9519,-1.9516,-1.9558,-1.9558,-1.9559,-1.9559,0,-1.9331,-1.9343,-1.9342,-1.9369,-1.9379,-1.9384,-1.9412,-1.9419,-1.9436,-1.9454,-1.9461,-1.9482,-1.9499,-1.9501,-1.9518,-1.9508,-1.9513,-1.9528,-1.9546,-1.9522,-1.9514,-1.9511,-1.9555,-1.9556,-1.9557,-1.9557,0,0,-1.9282,-1.9325,-1.9324,-1.9335,-1.9365,-1.9373,-1.9379,-1.9396,-1.94,-1.9418,-1.9422,-1.9437,-1.9451,-1.9462,-1.948,-1.9479,-1.9458,-1.9494,-1.9495,-1.9485,-1.9446,-1.9433,-1.9429,-1.947,-1.9469,-1.9469,-1.9444,0,-1.9259,-1.9273,-1.9299,-1.9303,-1.9312,-1.9342,-1.9346,-1.9363,-1.938,-1.9389,-1.9407,-1.9417,-1.9436,-1.9442,-1.9442,-1.946,-1.945,-1.9463,-1.9471,-1.9471,-1.9463,-1.9425,-1.9412,-1.9387,-1.9441,-1.9441,-1.944,0,-1.9235,-1.9252,-1.9257,-1.9285,-1.929,-1.9294,-1.9311,-1.932,-1.9339,-1.9352,-1.9363,-1.9383,-1.9388,-1.9406,-1.9412,-1.942,-1.9425,-1.9434,-1.9434,-1.9434,-1.9453,-1.9423,-1.938,-1.9376,-1.9436,-1.9436,-1.9437,0,-1.9196,-1.922,-1.9225,-1.9235,-1.9268,-1.927,-1.9283,-1.9304,-1.9312,-1.9327,-1.9332,-1.9346,-1.9354,-1.9364,-1.9386,-1.9397,-1.9389,-1.9409,-1.9397,-1.9397,-1.9393,-1.9392,-1.9349,-1.9399,-1.9399,-1.9399,-1.9399,0,-1.9168,-1.9169,-1.9208,-1.9211,-1.9213,-1.9243,-1.9243,-1.9259,-1.9277,-1.9282,-1.9309,-1.9313,-1.9344,-1.9351,-1.9368,-1.937,-1.9373,-1.9381,-1.9386,-1.9378,-1.9377,-1.938,-1.9382,-1.9398,-1.9399,-1.9399,-1.9399,0,-1.9123,-1.915,-1.9158,-1.9189,-1.9197,-1.9196,-1.9222,-1.9225,-1.9244,-1.925,-1.9253,-1.9281,-1.9291,-1.9315,-1.9331,-1.9343,-1.9338,-1.9348,-1.9332,-1.9334,-1.932,-1.932,-1.9276,-1.9271,-1.9326,-1.9326,-1.9325,0,-1.9103,-1.9104,-1.9136,-1.9142,-1.9155,-1.9165,-1.9173,-1.9202,-1.9209,-1.9232,-1.9231,-1.9244,-1.9255,-1.9268,-1.9289,-1.9301,-1.9309,-1.9293,-1.9311,-1.9303,-1.9306,-1.9305,-1.9304,-1.9288,-1.9287,-1.9287,-1.9286,0,-1.9062,-1.9075,-1.9087,-1.9104,-1.9114,-1.9128,-1.9143,-1.9146,-1.9178,-1.9185,-1.9196,-1.9204,-1.9221,-1.9231,-1.9246,-1.9258,-1.9276,-1.9281,-1.9278,-1.9269,-1.9259,-1.9262,-1.9319,-1.9281,-1.9282,-1.9282,-1.9282,-1.9282,-1.9028,-1.903,-1.9052,-1.9064,-1.9079,-1.9093,-1.9097,-1.9116,-1.9126,-1.9142,-1.9158,-1.9167,-1.9185,-1.9207,-1.9218,-1.9224,-1.9233,-1.923,-1.9229,-1.9227,-1.9223,-1.926,-1.9227,-1.9227,-1.9227,-1.9227,-1.9227,0,-1.8986,-1.9002,-1.9014,-1.9034,-1.9043,-1.9062,-1.908,-1.9085,-1.9093,-1.9109,-1.912,-1.9131,-1.9142,-1.9163,-1.9175,-1.9175,-1.9184,-1.9177,-1.9176,-1.9178,-1.9215,-1.9215,-1.917,-1.917,-1.917,-1.917,-1.917,-1.917,-1.8966,-1.897,-1.8986,-1.8997,-1.9012,-1.9022,-1.903,-1.9042,-1.9055,-1.9067,-1.9076,-1.9091,-1.9108,-1.9122,-1.9131,-1.9137,-1.9139,-1.9129,-1.9138,-1.9171,-1.9176,-1.9181,-1.9181,-1.913,-1.913,-1.9101,-1.91,-1.91]}]]